DW2932 Weather Reports


time (UTC)temp
C
wind
direction
speed
KPH
gust
KPH
rain 1hr
cm
rain 24hr
cm
rain mn
cm
humidity
%
barometer
mb
20260506002127 27 136 1.6 12.9 0.00 0.00 0.00 33 1011.6
20260506001123 27 146 3.2 11.3 0.00 0.00 0.00 31 1011.6
20260506000120 27 162 1.6 11.3 0.00 0.00 0.00 37 1011.7
20260505235120 27 146 1.6 14.5 0.00 0.00 0.00 38 1011.8
20260505234118 27 113 3.2 14.5 0.00 0.00 0.00 38 1011.9
20260505233133 26 126 4.8 16.1 0.00 0.00 0.00 36 1011.9
20260505232148 26 122 4.8 20.9 0.00 0.00 0.00 36 1012.1
20260505231148 26 103 1.6 8.0 0.00 0.00 0.00 39 1012.2
20260505230124 25 105 3.2 12.9 0.00 0.00 0.00 42 1012.3
20260505225122 23 124 0.0 3.2 0.00 0.00 0.00 41 1012.4
20260505224123 24 107 0.0 6.4 0.00 0.00 0.00 40 1012.4
20260505223122 25 117 0.0 4.8 0.00 0.00 0.00 40 1012.4
20260505222118 25 108 1.6 9.7 0.00 0.00 0.00 37 1012.5
20260505221135 27 139 1.6 8.0 0.00 0.00 0.00 36 1012.5
20260505220116 27 141 3.2 12.9 0.00 0.00 0.00 35 1012.5
20260505215112 27 108 1.6 6.4 0.00 0.00 0.00 37 1012.5
20260505214129 26 104 0.0 6.4 0.00 0.00 0.00 42 1012.6
20260505213129 26 126 3.2 11.3 0.00 0.00 0.00 40 1012.6
20260505212146 26 121 1.6 6.4 0.00 0.00 0.00 42 1012.6
20260505211121 26 162 0.0 8.0 0.00 0.00 0.00 43 1012.7
20260505210118 25 146 0.0 6.4 0.00 0.00 0.00 45 1012.7
20260505205119 25 148 1.6 8.0 0.00 0.00 0.00 45 1012.8
20260505204116 25 175 0.0 8.0 0.00 0.00 0.00 45 1012.9
20260505203113 25 99 1.6 6.4 0.00 0.00 0.00 44 1012.8
20260505202128 25 174 1.6 6.4 0.00 0.00 0.00 47 1012.9
20260505201129 25 165 0.0 8.0 0.00 0.00 0.00 48 1012.9
20260505200127 24 178 3.2 9.7 0.00 0.00 0.00 47 1013.0
20260505195144 24 172 1.6 9.7 0.00 0.00 0.00 48 1013.1
20260505194125 23 117 0.0 11.3 0.00 0.00 0.00 50 1013.1
20260505193122 23 160 1.6 8.0 0.00 0.00 0.00 50 1013.1
20260505192118 23 179 0.0 8.0 0.00 0.00 0.00 53 1013.2
20260505191134 23 156 1.6 9.7 0.00 0.00 0.00 54 1013.2
20260505190113 23 165 1.6 8.0 0.00 0.00 0.00 52 1013.2
20260505185110 22 160 0.0 8.0 0.00 0.00 0.00 55 1013.3
20260505184127 22 153 0.0 6.4 0.00 0.00 0.00 54 1013.3
20260505183128 22 179 1.6 6.4 0.00 0.00 0.00 55 1013.3
20260505182125 22 156 3.2 8.0 0.00 0.00 0.00 54 1013.4
20260505181122 21 179 1.6 4.8 0.00 0.00 0.00 56 1013.4
20260505180140 21 166 1.6 6.4 0.00 0.00 0.00 54 1013.5
20260505175120 21 138 0.0 1.6 0.00 0.00 0.00 52 1013.4
20260505174116 21 175 0.0 3.2 0.00 0.00 0.00 53 1013.5
20260505173113 20 170 0.0 1.6 0.00 0.00 0.00 55 1013.5
20260505172114 20 143 0.0 6.4 0.00 0.00 0.00 54 1013.5
20260505171133 20 157 0.0 3.2 0.00 0.00 0.00 56 1013.6
20260505170127 19 143 1.6 4.8 0.00 0.00 0.00 57 1013.5
20260505165123 18 126 0.0 4.8 0.00 0.00 0.00 61 1013.6
20260505164123 18 124 0.0 6.4 0.00 0.00 0.00 60 1013.5
20260505163139 18 120 0.0 3.2 0.00 0.00 0.00 60 1013.4
20260505162114 17 147 0.0 6.4 0.00 0.00 0.00 62 1013.4
20260505161111 17 155 1.6 4.8 0.00 0.00 0.00 62 1013.5
20260505160112 17 160 0.0 6.4 0.00 0.00 0.00 62 1013.5
20260505153122 16 146 1.6 8.0 0.00 0.00 0.00 65 1013.5
20260505152122 16 147 0.0 3.2 0.00 0.00 0.00 67 1013.5
20260505151120 15 146 0.0 4.8 0.00 0.00 0.00 68 1013.4
20260505150136 15 153 3.2 9.7 0.00 0.00 0.00 68 1013.3
20260505140123 12 157 0.0 1.6 0.00 0.00 0.00 77 1013.0
20260505130146 11 137 0.0 9.7 0.00 0.00 0.00 78 1012.6
20260505124122 12 137 1.6 4.8 0.00 0.00 0.00 77 1012.4
20260505123120 12 134 0.0 3.2 0.00 0.00 0.00 77 1012.3
20260505122114 12 143 0.0 1.6 0.00 0.00 0.00 76 1012.3
20260505121114 12 131 0.0 8.0 0.00 0.00 0.00 76 1012.3
20260505120112 12 127 0.0 6.4 0.00 0.00 0.00 75 1012.2
20260505115147 12 127 0.0 9.7 0.00 0.00 0.00 75 1012.1
20260505114142 12 164 0.0 8.0 0.00 0.00 0.00 76 1012.1
20260505113144 12 101 0.0 4.8 0.00 0.00 0.00 76 1012.1
20260505112140 12 139 0.0 6.4 0.00 0.00 0.00 76 1012.1
20260505111116 12 129 1.6 12.9 0.00 0.00 0.00 76 1012.0
20260505110114 12 150 0.0 11.3 0.00 0.00 0.00 76 1012.0
20260505102119 13 152 0.0 8.0 0.00 0.00 0.00 73 1011.9
20260505101115 13 153 0.0 6.4 0.00 0.00 0.00 73 1011.8
20260505100111 13 141 0.0 3.2 0.00 0.00 0.00 73 1011.7
20260505095147 13 129 1.6 6.4 0.00 0.00 0.00 73 1011.6
20260505094126 13 137 0.0 1.6 0.00 0.00 0.00 72 1011.4
20260505093124 13 136 1.6 4.8 0.00 0.00 0.00 71 1011.4
20260505092117 13 139 1.6 9.7 0.00 0.00 0.00 71 1011.4
20260505091119 13 133 0.0 9.7 0.00 0.00 0.00 70 1011.4
20260505090116 13 157 0.0 4.8 0.00 0.00 0.00 70 1011.4
20260505085112 14 163 0.0 8.0 0.00 0.00 0.00 70 1011.3
20260505084113 14 160 0.0 4.8 0.00 0.00 0.00 70 1011.2
20260505083129 14 136 0.0 3.2 0.00 0.00 0.00 71 1011.2
20260505082124 14 108 0.0 1.6 0.00 0.00 0.00 71 1011.2
20260505081119 14 134 0.0 0.0 0.00 0.00 0.00 71 1011.1
20260505080121 15 153 0.0 4.8 0.00 0.00 0.00 70 1011.2
20260505075117 15 148 0.0 3.2 0.00 0.00 0.00 71 1011.2
20260505074112 15 139 0.0 1.6 0.00 0.00 0.00 70 1011.0
20260505073114 15 178 0.0 0.0 0.00 0.00 0.00 69 1010.9
20260505072110 15 145 1.6 6.4 0.00 0.00 0.00 69 1010.8
20260505071128 15 140 0.0 1.6 0.00 0.00 0.00 69 1010.7
20260505070124 15 100 0.0 1.6 0.00 0.00 0.00 69 1010.8
20260505065125 15 148 0.0 0.0 0.00 0.00 0.00 69 1010.7
20260505064121 16 148 0.0 1.6 0.00 0.00 0.00 67 1010.6
20260505063119 16 113 0.0 3.2 0.00 0.00 0.00 66 1010.5
20260505062141 16 141 0.0 6.4 0.00 0.00 0.00 65 1010.5
20260505061117 16 141 0.0 3.2 0.00 0.00 0.00 64 1010.4
20260505060115 17 138 0.0 6.4 0.00 0.00 0.00 63 1010.3
20260505055115 17 167 0.0 1.6 0.00 0.00 0.00 63 1010.3
20260505054132 17 146 0.0 11.3 0.00 0.00 0.00 62 1010.3
20260505053128 17 108 0.0 6.4 0.00 0.00 0.00 62 1010.3
20260505052145 17 141 1.6 6.4 0.00 0.00 0.00 61 1010.3
20260505051140 17 136 1.6 8.0 0.00 0.00 0.00 61 1010.3
20260505050118 17 141 1.6 6.4 0.00 0.00 0.00 60 1010.2
20260505041139 19 168 0.0 12.9 0.00 0.00 0.00 56 1009.8
20260505040116 19 132 0.0 6.4 0.00 0.00 0.00 56 1009.8
20260505035116 19 131 0.0 9.7 0.00 0.00 0.00 55 1009.6
20260505034111 19 121 1.6 8.0 0.00 0.00 0.00 55 1009.5
20260505033148 19 120 4.8 12.9 0.00 0.00 0.00 54 1009.4
20260505032123 20 139 0.0 14.5 0.00 0.00 0.00 54 1009.2
20260505031124 20 159 0.0 6.4 0.00 0.00 0.00 53 1009.1
20260505030122 21 116 1.6 8.0 0.00 0.00 0.00 51 1009.0
20260505025120 21 106 0.0 6.4 0.00 0.00 0.00 50 1009.0
20260505024120 21 149 0.0 9.7 0.00 0.00 0.00 49 1008.9
20260505023117 22 103 4.8 11.3 0.00 0.00 0.00 48 1008.9
20260505022114 22 136 0.0 11.3 0.00 0.00 0.00 47 1008.8
20260505021114 22 103 3.2 14.5 0.00 0.00 0.00 44 1008.7
20260505020111 23 135 3.2 12.9 0.00 0.00 0.00 43 1008.5
20260505015128 23 148 0.0 8.0 0.00 0.00 0.00 41 1008.6
20260505014125 24 129 3.2 16.1 0.00 0.00 0.00 39 1008.5
20260505013127 25 134 3.2 14.5 0.00 0.00 0.00 37 1008.6
20260505012124 25 146 3.2 9.7 0.00 0.00 0.00 36 1008.7
20260505011122 25 148 1.6 16.1 0.00 0.00 0.00 38 1008.7
20260505010142 26 135 0.0 9.7 0.00 0.00 0.00 37 1008.7
20260505005119 26 108 1.6 8.0 0.00 0.00 0.00 35 1008.6
20260505004114 26 129 0.0 9.7 0.00 0.00 0.00 35 1008.5
20260505003133 26 141 6.4 19.3 0.00 0.00 0.00 34 1008.6